Theta_e
330 329 328 326 326 326 324 324 323 316 317 321 323 327 329 330 331 334 333 327 326 322 322 322 324 327 328 329 329 330 330 331 331 331 332 330 329 328
329 327 326 326 326 326 324 323 322 321 318 320 322 325 329 331 333 332 331 327 323 321 319 320 320 322 324 324 325 327 328 327 327 327 328 328 327 327
328 327 326 326 326 326 325 324 323 322 319 322 324 326 326 327 326 327 328 326 326 320 320 320 318 319 321 321 323 324 324 324 324 324 325 325 325 325
326 327 326 326 326 326 325 324 324 323 322 319 322 324 324 327 325 325 326 326 327 322 319 318 317 318 318 319 318 318 318 319 319 320 321 322 323 324
327 326 326 326 325 325 325 324 324 323 323 320 320 324 324 325 323 324 324 323 323 321 317 316 316 317 316 316 316 315 313 312 312 314 317 319 320 321
327 327 326 325 325 325 325 325 324 323 322 320 320 321 322 323 322 319 317 320 320 322 320 319 317 317 317 316 317 315 311 309 309 310 311 311 312 314
325 325 325 324 321 322 325 325 323 322 321 320 320 320 319 320 318 319 319 319 319 322 320 322 322 322 320 318 320 316 311 309 308 308 308 307 307 309
323 323 323 319 316 312 312 315 322 322 319 318 317 317 320 319 318 318 318 319 317 321 319 317 323 320 322 327 315 310 308 308 308 307 307 306 306 304
323 321 321 322 320 321 311 311 313 312 315 319 318 320 320 320 320 319 320 319 316 318 319 313 318 317 323 319 309 308 307 306 305 306 306 306 305 301
322 321 322 323 322 322 319 321 323 320 320 321 322 322 325 325 324 323 319 317 318 317 321 311 316 313 317 319 307 306 305 304 304 304 305 304 303 300
321 321 322 322 308 304 320 321 319 316 305 304 305 306 304 306 315 319 317 317 313 315 317 317 314 313 316 316 315 305 304 303 302 303 303 303 301 300
320 318 305 315 300 301 323 320 317 315 315 316 315 309 308 309 308 322 321 316 315 314 317 317 315 315 312 317 315 314 313 303 302 300 301 301 300 314
320 319 317 300 298 299 307 321 316 315 312 317 317 317 317 318 321 323 324 320 319 317 317 320 317 317 318 316 316 317 316 314 316 312 301 301 300 306
319 319 311 297 296 297 307 297 300 309 317 317 316 315 315 316 318 320 320 320 320 322 320 322 318 319 315 313 312 313 315 317 318 318 317 309 300 300
319 310 297 295 295 299 297 299 303 317 317 316 315 315 317 318 318 318 319 320 319 318 321 322 322 320 318 316 315 314 310 313 318 318 318 316 316 316
303 306 304 303 303 302 305 310 316 317 316 315 314 316 317 316 315 316 317 317 316 316 320 322 321 319 315 317 314 316 316 315 316 316 316 316 317 316
309 313 314 312 311 313 315 315 315 317 316 315 315 315 315 315 314 316 316 316 315 315 314 316 318 318 319 317 314 314 316 319 319 318 314 317 319 319
314 315 314 313 312 314 314 314 314 312 317 316 316 315 314 314 314 315 315 316 318 318 317 318 316 315 314 316 315 318 319 319 321 320 318 316 319 323
316 315 315 314 314 316 314 314 314 315 317 316 316 316 315 314 312 314 314 316 316 318 317 314 314 313 309 309 319 309 320 320 319 318 318 317 317 320
317 316 316 316 317 317 317 316 316 316 317 316 316 316 316 314 314 313 314 313 314 314 315 314 313 313 314 314 314 319 299 321 319 319 318 316 316 306
316 317 319 318 318 318 318 318 318 317 317 317 316 316 316 315 314 315 314 302 306 316 315 315 316 301 319 319 317 319 323 299 313 320 319 316 319 321
317 317 318 319 319 319 319 318 318 315 317 318 319 317 316 316 315 316 318 317 316 314 315 317 318 319 317 317 318 318 319 322 305 301 302 309 320 317
318 317 319 320 321 320 319 319 318 318 318 318 318 319 318 316 317 318 317 317 316 315 318 317 317 317 316 315 310 317 318 320 319 319 321 301 299 301
Wind_Speed
5 5 3 3 3 3 3 2 3 2 1 1 0 3 1 2 4 5 5 6 8 10 9 7 7 9 9 11 12 15 15 17 18 17 17 18 18 16
4 6 4 3 4 3 3 3 2 3 2 1 1 1 1 2 5 2 1 3 4 7 7 8 9 9 12 13 16 19 19 17 16 15 15 14 13 13
5 6 6 5 4 4 3 3 3 3 3 2 0 1 1 4 4 4 4 4 3 4 7 11 12 13 13 10 15 17 17 16 16 14 12 11 11 11
7 7 6 4 5 5 4 5 3 4 2 4 1 1 2 4 4 5 4 4 4 5 8 11 13 14 16 16 9 14 14 14 14 13 12 11 10 11
8 7 6 7 5 4 4 4 3 3 3 3 3 1 1 2 3 4 5 5 4 10 11 7 9 13 15 17 16 16 14 12 12 13 11 10 10 9
6 6 6 7 6 6 4 5 4 4 4 4 4 3 1 3 1 3 4 4 4 4 8 8 8 11 15 17 14 14 13 11 10 11 10 9 9 8
5 4 4 6 6 6 4 5 6 5 4 6 5 3 2 3 4 2 3 4 3 2 4 3 6 6 7 12 12 14 12 11 10 10 9 9 9 9
6 5 4 6 6 7 6 5 7 7 6 4 3 6 5 3 4 5 5 4 3 1 3 4 3 5 5 7 10 13 12 10 10 9 9 9 9 8
6 6 5 3 5 5 3 3 6 7 4 4 8 8 8 6 7 7 4 3 2 2 4 2 2 3 3 4 10 11 10 9 8 8 8 8 8 7
6 7 6 6 5 5 4 4 5 3 3 2 3 5 5 10 9 6 5 7 5 3 2 3 1 2 2 2 6 10 10 9 8 9 8 8 8 7
5 5 5 4 5 7 5 5 4 3 4 4 1 7 10 11 10 8 7 8 3 2 1 3 2 2 1 2 2 7 9 9 9 8 8 8 8 7
5 5 4 2 8 9 5 5 5 3 3 4 3 6 7 10 11 9 10 9 6 1 2 3 3 4 2 2 3 3 3 6 7 8 9 8 6 4
4 3 2 4 8 8 6 6 5 7 6 5 5 4 4 6 4 4 5 7 9 3 4 3 4 4 2 3 3 5 7 5 7 7 10 10 10 10
5 3 4 6 8 7 5 9 12 9 5 5 4 3 4 4 3 3 4 4 2 1 11 6 4 5 4 3 3 2 5 7 7 8 7 7 10 13
4 6 9 8 9 6 11 11 9 5 5 4 3 2 3 4 5 4 4 5 5 3 7 3 4 7 4 3 3 3 3 5 8 8 8 8 8 6
9 5 5 7 7 8 7 4 4 4 4 4 3 3 4 4 4 3 4 4 3 3 4 2 3 5 3 2 2 2 3 1 3 5 6 7 7 8
8 4 4 3 5 5 4 4 4 5 5 3 4 4 4 3 2 2 3 2 2 4 4 2 3 2 1 3 3 3 2 3 4 4 4 5 7 8
4 4 3 5 6 6 5 4 3 5 5 5 4 4 4 4 4 3 2 3 4 4 5 5 3 2 1 4 8 5 5 5 5 6 5 5 8 7
4 4 4 5 5 6 6 5 4 4 5 4 5 5 4 4 5 3 3 4 3 2 2 3 3 3 2 3 1 13 7 5 4 4 5 6 5 9
4 5 6 5 6 6 6 4 5 5 5 4 4 4 5 4 3 4 4 3 2 2 2 2 3 4 5 2 1 3 14 7 4 6 5 3 7 13
3 4 5 5 5 5 5 5 5 5 6 5 4 4 4 4 4 4 4 4 5 3 2 3 4 6 4 1 5 6 5 18 12 6 2 4 5 3
4 4 3 5 5 5 4 4 5 4 4 4 4 4 4 4 4 5 4 4 5 3 2 1 2 3 3 4 8 8 6 5 6 19 17 10 6 4
5 4 4 4 4 4 4 4 4 4 4 4 4 5 4 5 5 5 4 4 3 2 3 3 1 2 4 5 6 7 10 10 6 8 5 11 17 15
Wind_Direction
162 160 158 178 190 183 163 162 154 191 269 64 40 349 264 216 217 225 215 214 193 191 191 170 178 168 166 154 132 126 138 142 146 151 150 157 176 166
146 162 167 167 179 177 171 170 165 159 210 160 55 329 341 138 129 114 122 179 180 167 156 138 155 163 151 142 135 134 135 139 140 146 161 169 169 170
148 172 181 173 179 177 170 163 179 164 186 140 92 41 74 94 76 66 72 83 84 121 144 162 139 129 124 122 140 139 139 142 147 154 157 163 165 163
169 169 182 168 182 181 185 181 191 186 154 160 138 138 103 126 110 96 71 77 85 96 140 161 143 153 145 147 156 134 139 146 149 149 160 168 170 165
170 175 172 175 188 178 187 185 195 177 178 151 141 131 108 142 108 82 70 68 64 89 110 100 135 137 126 135 153 143 142 143 151 157 165 166 167 168
172 175 170 185 189 190 191 199 189 176 180 153 165 133 130 127 122 120 77 53 61 53 78 116 129 127 141 144 145 138 142 153 163 161 162 162 168 178
167 161 175 186 186 184 172 187 179 174 173 170 147 142 154 149 157 108 106 103 63 69 89 95 124 127 136 130 142 144 151 165 169 165 166 170 182 186
154 160 158 145 147 158 194 202 178 173 175 159 156 164 164 120 133 134 137 147 125 30 87 59 109 117 130 149 143 144 154 167 169 165 173 178 187 193
148 155 160 164 158 152 123 172 180 177 175 160 168 177 166 162 146 149 152 133 117 125 102 67 22 98 131 133 148 155 161 168 172 172 184 188 191 198
158 171 168 171 182 163 148 149 168 150 146 183 176 178 164 154 157 155 125 108 88 60 82 109 74 76 104 117 158 165 166 172 178 187 194 198 203 204
164 160 167 166 175 164 164 174 146 126 63 65 319 151 142 135 138 130 148 143 122 131 97 123 128 93 85 156 169 173 173 177 191 201 203 208 211 217
142 136 87 172 154 171 175 163 165 158 142 114 104 82 130 147 156 160 161 159 131 120 201 123 134 146 143 178 172 168 185 208 211 219 224 226 214 241
151 159 131 138 160 180 179 170 163 138 138 133 116 115 130 152 153 141 163 165 160 125 161 151 147 153 117 145 182 196 199 207 220 231 228 228 217 212
165 154 127 133 161 158 123 124 121 125 137 126 119 126 139 150 145 132 123 113 59 149 163 166 149 170 141 156 188 183 210 220 221 230 236 238 226 221
137 128 116 129 129 104 126 132 138 135 142 136 139 125 133 127 113 103 105 105 83 109 162 173 171 169 168 172 165 189 183 209 218 234 236 238 240 229
107 114 121 111 95 113 121 134 119 142 154 136 128 118 115 133 136 138 143 135 101 106 146 78 152 165 140 184 167 179 201 225 175 223 240 252 244 236
121 122 117 114 121 134 125 125 130 146 152 140 139 131 128 126 115 139 124 125 122 160 161 133 71 100 118 163 214 219 217 240 231 226 204 256 243 235
124 138 128 142 146 148 144 145 151 158 160 157 146 140 136 134 128 129 113 134 158 172 175 175 156 119 125 255 208 252 256 263 258 233 225 255 275 260
139 155 157 157 159 157 151 160 158 169 156 159 158 150 135 133 141 144 139 162 147 127 171 144 163 161 160 210 283 218 242 252 261 262 234 218 254 271
163 167 165 159 164 159 162 158 150 156 165 162 156 157 155 151 150 152 162 164 151 170 162 149 167 193 210 220 258 279 203 242 238 266 271 235 246 271
151 153 156 160 159 153 154 153 166 165 169 164 161 164 163 160 170 168 170 168 172 185 186 173 204 207 224 214 259 266 269 216 232 233 251 263 274 269
154 139 137 137 145 150 151 154 157 154 165 168 174 167 168 176 180 179 180 190 202 185 207 180 159 172 194 222 262 271 284 295 225 237 243 240 262 269
155 148 149 140 146 148 146 152 155 166 173 173 178 183 179 186 192 199 202 194 187 196 240 261 245 191 233 228 239 263 267 289 304 308 301 227 238 264